Regional Weather Roundup
Issued by NWS

Home | Current Version | Previous Version | Text Only | Print | Product List | Glossary On
Versions: 1 2 3 4 5 6 7 8 9 10 11 12 13 14 15 16 17 18 19 20 21 22 23 24 25 26 27 28 29 30 31 32 33 34 35 36 37 38 39 40 41 42 43 44 45 46 47 48 49 50
000
ASUS42 KKEY 231410
RWRKEY

FLORIDA REGIONAL WEATHER ROUNDUP FOR THE FLORIDA KEYS
NATIONAL WEATHER SERVICE KEY WEST FLORIDA
1000 AM EDT SAT MAY 23 2015

...SOUTH FLORIDA AND THE KEYS...

CITY           SKY/WX    TMP DP  RH WIND       PRES   REMARKS
FORT MYERS     PTSUNNY   81  75  82 E10       30.19S
SW REGIONAL AP PTSUNNY   82  75  79 E10       30.20S
NAPLES         PTSUNNY   83  75  77 E9        30.20R HX  90
MIAMI          MOSUNNY   84  72  67 E6        30.19S
WEST KENDALL   MOSUNNY   85  74  69 VRB6      30.19S HX  92
HOMESTEAD      NOT AVBL
MARATHON       MOSUNNY   88  75  65 E6        30.18R HX  97
BOCA CHICA NAS MOSUNNY   86  73  65 E9        30.17R HX  93
KEY WEST INTL  SUNNY     85  74  69 E9        30.18R HX  92

...INTERNATIONAL WEATHER...

CITY           SKY/WX    TMP DP  RH WIND       PRES   REMARKS
NASSAU BAHAMAS MOSUNNY   82  72  69 E5        30.20R
CANCUN MEXICO  PTSUNNY   86  73  66 E12       30.11R HX  93
COZUMEL MEXICO MOSUNNY   81  73  78 E9        30.10S

ADJACENT COASTAL WATERS...

STATION/POSITION TIME  SKY/WX   TEMP    WIND        PRES    WAVE
                                AIR SEA DIR/SP/G            HT/PER
                 (UTC)          (F)     (DEG/KT/KT) (MB)    (FT/S)
PULASKI SHOAL LI 1300            81     100/  5/  5 1021.3R
SAND KEY         1350            82      90/  9/ 11 1021.8R
SOMBRERO KEY     1400            83      80/  9/ 10 1022.5R
LONG KEY         1300            83 86   90/  8/  9 1022.4R
MOLASSES REEF    1400            82 83   90/  8/ 10 1022.1R
FOWEY ROCKS      NOT AVBL

$$


USA.gov is the U.S. government's official web portal to all federal, state and local government web resources and services.